This demonstration page uses our WeatherBlox Daily Observations layout. Learn more.

Left ArrowRight Arrow

Hourly Observations for January 19, 2022

Temp ( °F °C ) Dew Point ( °F °C ) Humidity (%) Winds ( mph kmh ) Pressure ( in mb ) Visibility ( mi km ) Precip ( " mm )
12:53 am 00:53 Clear 32 0 30 -1.1 92 92 Calm 30.19 1022 10 16 0.00 0.00
1:53 am 01:53 Clear 32 0 30 -1.1 92 92 Calm 30.19 1022 10 16 0.00 0.00
2:53 am 02:53 Clear 34 1.1 31 -0.6 89 89 Calm 30.20 1023 10 16 0.00 0.00
3:53 am 03:53 Clear 32 0 30 -1.1 92 92 Calm 30.21 1023 10 16 0.00 0.00
4:53 am 04:53 Clear 32 0 30 -1.1 92 92 Calm 30.22 1023 10 16 0.00 0.00
5:53 am 05:53 Clear 31 -0.6 29 -1.7 92 92 Calm 30.24 1024 10 16 0.00 0.00
6:53 am 06:53 Clear 29 -1.7 28 -2.2 96 96 Calm 30.25 1024 9 14 0.00 0.00
7:53 am 07:53 Sunny 30 -1.1 28 -2.2 92 92 Calm 30.25 1024 7 11 0.00 0.00
8:53 am 08:53 Sunny 34 1.1 34 1.1 100 100 Calm 30.25 1024 10 16 0.00 0.00
9:53 am 09:53 Sunny 43 6.1 35 1.7 74 74 Calm 30.25 1024 10 16 0.00 0.00
10:53 am 10:53 Sunny 51 10.6 37 2.8 59 59 W 5 7 30.24 1024 10 16 0.00 0.00
11:53 am 11:53 Sunny 56 13.3 35 1.7 46 46 SSW 10 17 30.22 1023 10 16 0.00 0.00
12:53 pm 12:53 Sunny 59 15 36 2.2 42 42 SSW 6 9 30.17 1022 10 16 0.00 0.00
1:53 pm 13:53 Sunny 61 16.1 31 -0.6 32 32 SW 10 17 30.14 1021 10 16 0.00 0.00
2:53 pm 14:53 Sunny 62 16.7 29 -1.7 29 29 SSW 8 13 30.11 1020 10 16 0.00 0.00
3:53 pm 15:53 Sunny 62 16.7 25 -3.9 24 24 S 7 11 30.10 1019 10 16 0.00 0.00
4:53 pm 16:53 Sunny 60 15.6 32 0 35 35 SSE 9 15 30.09 1019 10 16 0.00 0.00
5:53 pm 17:53 Sunny 59 15 32 0 36 36 SE 6 9 30.09 1019 10 16 0.00 0.00
6:53 pm 18:53 Clear 56 13.3 34 1.1 44 44 S 6 9 30.08 1019 10 16 0.00 0.00
7:53 pm 19:53 Mostly Cloudy 57 13.9 34 1.1 42 42 S 7 11 30.08 1019 10 16 0.00 0.00
8:53 pm 20:53 Clear 56 13.3 31 -0.6 39 39 S 7 11 30.09 1019 10 16 0.00 0.00
9:53 pm 21:53 Mostly Clear 54 12.2 30 -1.1 40 40 S 3 6 30.10 1019 10 16 0.00 0.00
10:53 pm 22:53 Clear 53 11.7 31 -0.6 43 43 S 6 9 30.09 1019 10 16 0.00 0.00
11:53 pm 23:53 Mostly Clear 53 11.7 33 0.6 47 47 SSW 6 9 30.07 1018 10 16 0.00 0.00

Powered by AerisWeather